sat.trackr.live / text

‹ back to catalog

STARLINK-2740

NORAD 48690 · 2021-044BE

PAYLOAD ACTIVE UNKNOWN

§ Identity

Operator
Country
US
Launch date
2021-05-26
Launch site
AFETR
Launch vehicle
Mass (kg)
RCS (m²)

Purposes: comms

External: N2YO · Heavens-Above · Gunter

§ Orbital elements

Epoch: 2026-05-25T02:19:48.016128Z

Period
94.01 min
Inclination
53.1596°
Eccentricity
0.0001333
Mean motion
15.31702565 rev/d
Perigee alt
469.8 km
Apogee alt
471.6 km
Semi-major
6,848.9 km
B*
3.3474e-5
RAAN
79.9523°
Arg perigee
77.4805°
Mean anomaly
282.6345°
Rev number
27,606

§ Raw data

STARLINK-27401 48690U 21044BE  26145.09708352  .00000674  00000+0  33474-4 0  99912 48690  53.1596  79.9523 0001333  77.4805 282.6345 15.31702565276060

JSON: /api/v1/satellites/48690 · /tle

For live sub-satellite position, see the globe view (requires WebGL).

§ Visibility from observer

Set your observer location to see the next 7 days of passes ≥ 10°. The values pass through the URL so the page stays shareable.

No JS? Fill the form by hand. The geolocation button needs JavaScript.